Year,Month,Day,Hour,Minute,Value (Times are PST for temperature in C)
2014,06,23,00,00,15.00
2014,06,23,00,01,14.90
2014,06,23,00,02,14.90
2014,06,23,00,03,14.90
2014,06,23,00,04,14.80
2014,06,23,00,05,14.80
2014,06,23,00,06,14.80
2014,06,23,00,07,14.70
2014,06,23,00,08,14.70
2014,06,23,00,09,14.70
2014,06,23,00,10,14.60
2014,06,23,00,11,14.60
2014,06,23,00,12,14.60
2014,06,23,00,13,14.50
2014,06,23,00,14,14.50
2014,06,23,00,15,14.40
2014,06,23,00,16,14.40
2014,06,23,00,17,14.40
2014,06,23,00,18,14.40
2014,06,23,00,19,14.30
2014,06,23,00,20,14.30
2014,06,23,00,21,14.30
2014,06,23,00,22,14.30
2014,06,23,00,23,14.40
2014,06,23,00,24,14.40
2014,06,23,00,25,14.40
2014,06,23,00,26,14.40
2014,06,23,00,27,14.50
2014,06,23,00,28,14.50
2014,06,23,00,29,14.60
2014,06,23,00,30,14.60
2014,06,23,00,31,14.60
2014,06,23,00,32,14.60
2014,06,23,00,33,14.60
2014,06,23,00,34,14.50
2014,06,23,00,35,14.50
2014,06,23,00,36,14.50
2014,06,23,00,37,14.50
2014,06,23,00,38,14.60
2014,06,23,00,39,14.70
2014,06,23,00,40,14.70
2014,06,23,00,41,14.70
2014,06,23,00,42,14.70
2014,06,23,00,43,14.60
2014,06,23,00,44,14.50
2014,06,23,00,45,14.40
2014,06,23,00,46,14.30
2014,06,23,00,47,14.20
2014,06,23,00,48,14.20
2014,06,23,00,49,14.10
2014,06,23,00,50,14.10
2014,06,23,00,51,14.00
2014,06,23,00,52,13.90
2014,06,23,00,53,13.90
2014,06,23,00,54,13.80
2014,06,23,00,55,13.70
2014,06,23,00,56,13.70
2014,06,23,00,57,13.60
2014,06,23,00,58,13.50
2014,06,23,00,59,13.50
2014,06,23,01,00,13.60
2014,06,23,01,01,13.60
2014,06,23,01,02,13.60
2014,06,23,01,03,13.60
2014,06,23,01,04,13.60
2014,06,23,01,05,13.60
2014,06,23,01,06,13.50
2014,06,23,01,07,13.50
2014,06,23,01,08,13.50
2014,06,23,01,09,13.40
2014,06,23,01,10,13.40
2014,06,23,01,11,13.40
2014,06,23,01,12,13.40
2014,06,23,01,13,13.40
2014,06,23,01,14,13.30
2014,06,23,01,15,13.30
2014,06,23,01,16,13.30
2014,06,23,01,17,13.30
2014,06,23,01,18,13.30
2014,06,23,01,19,13.30
2014,06,23,01,20,13.30
2014,06,23,01,21,13.30
2014,06,23,01,22,13.30
2014,06,23,01,23,13.30
2014,06,23,01,24,13.30
2014,06,23,01,25,13.30
2014,06,23,01,26,13.30
2014,06,23,01,27,13.30
2014,06,23,01,28,13.30
2014,06,23,01,29,13.40
2014,06,23,01,30,13.40
2014,06,23,01,31,13.50
2014,06,23,01,32,13.50
2014,06,23,01,33,13.60
2014,06,23,01,34,13.60
2014,06,23,01,35,13.60
2014,06,23,01,36,13.70
2014,06,23,01,37,13.70
2014,06,23,01,38,13.70
2014,06,23,01,39,13.70
2014,06,23,01,40,13.60
2014,06,23,01,41,13.60
2014,06,23,01,42,13.60
2014,06,23,01,43,13.60
2014,06,23,01,44,13.50
2014,06,23,01,45,13.50
2014,06,23,01,46,13.40
2014,06,23,01,47,13.40
2014,06,23,01,48,13.30
2014,06,23,01,49,13.30
2014,06,23,01,50,13.30
2014,06,23,01,51,13.20
2014,06,23,01,52,13.20
2014,06,23,01,53,13.20
2014,06,23,01,54,13.20
2014,06,23,01,55,13.10
2014,06,23,01,56,13.10
2014,06,23,01,57,13.10
2014,06,23,01,58,13.10
2014,06,23,01,59,13.10
2014,06,23,02,00,13.10
2014,06,23,02,01,13.00
2014,06,23,02,02,13.00
2014,06,23,02,03,13.00
2014,06,23,02,04,12.90
2014,06,23,02,05,12.90
2014,06,23,02,06,12.90
2014,06,23,02,07,12.90
2014,06,23,02,08,12.90
2014,06,23,02,09,12.90
2014,06,23,02,10,12.90
2014,06,23,02,11,12.90
2014,06,23,02,12,12.90
2014,06,23,02,13,12.80
2014,06,23,02,14,12.80
2014,06,23,02,15,12.80
2014,06,23,02,16,12.80
2014,06,23,02,17,12.80
2014,06,23,02,18,12.80
2014,06,23,02,19,12.80
2014,06,23,02,20,12.80
2014,06,23,02,21,12.80
2014,06,23,02,22,12.80
2014,06,23,02,23,12.80
2014,06,23,02,24,12.70
2014,06,23,02,25,12.70
2014,06,23,02,26,12.70
2014,06,23,02,27,12.70
2014,06,23,02,28,12.70
2014,06,23,02,29,12.70
2014,06,23,02,30,12.70
2014,06,23,02,31,12.70
2014,06,23,02,32,12.70
2014,06,23,02,33,12.70
2014,06,23,02,34,12.70
2014,06,23,02,35,12.70
2014,06,23,02,36,12.70
2014,06,23,02,37,12.70
2014,06,23,02,38,12.60
2014,06,23,02,39,12.60
2014,06,23,02,40,12.60
2014,06,23,02,41,12.60
2014,06,23,02,42,12.60
2014,06,23,02,43,12.60
2014,06,23,02,44,12.60
2014,06,23,02,45,12.60
2014,06,23,02,46,12.60
2014,06,23,02,47,12.50
2014,06,23,02,48,12.50
2014,06,23,02,49,12.50
2014,06,23,02,50,12.50
2014,06,23,02,51,12.40
2014,06,23,02,52,12.40
2014,06,23,02,53,12.40
2014,06,23,02,54,12.50
2014,06,23,02,55,12.50
2014,06,23,02,56,12.50
2014,06,23,02,57,12.60
2014,06,23,02,58,12.60
2014,06,23,02,59,12.60
2014,06,23,03,00,12.60
2014,06,23,03,01,12.60
2014,06,23,03,02,12.60
2014,06,23,03,03,12.60
2014,06,23,03,04,12.60
2014,06,23,03,05,12.50
2014,06,23,03,06,12.50
2014,06,23,03,07,12.50
2014,06,23,03,08,12.40
2014,06,23,03,09,12.40
2014,06,23,03,10,12.30
2014,06,23,03,11,12.30
2014,06,23,03,12,12.30
2014,06,23,03,13,12.30
2014,06,23,03,14,12.30
2014,06,23,03,15,12.30
2014,06,23,03,16,12.30
2014,06,23,03,17,12.30
2014,06,23,03,18,12.30
2014,06,23,03,19,12.30
2014,06,23,03,20,12.20
2014,06,23,03,21,12.20
2014,06,23,03,22,12.20
2014,06,23,03,23,12.20
2014,06,23,03,24,12.20
2014,06,23,03,25,12.20
2014,06,23,03,26,12.20
2014,06,23,03,27,12.20
2014,06,23,03,28,12.20
2014,06,23,03,29,12.20
2014,06,23,03,30,12.20
2014,06,23,03,31,12.20
2014,06,23,03,32,12.10
2014,06,23,03,33,12.10
2014,06,23,03,34,12.10
2014,06,23,03,35,12.10
2014,06,23,03,36,12.10
2014,06,23,03,37,12.10
2014,06,23,03,38,12.10
2014,06,23,03,39,12.10
2014,06,23,03,40,12.10
2014,06,23,03,41,12.10
2014,06,23,03,42,12.10
2014,06,23,03,43,12.10
2014,06,23,03,44,12.10
2014,06,23,03,45,12.10
2014,06,23,03,46,12.10
2014,06,23,03,47,12.10
2014,06,23,03,48,12.10
2014,06,23,03,49,12.10
2014,06,23,03,50,12.10
2014,06,23,03,51,12.10
2014,06,23,03,52,12.10
2014,06,23,03,53,12.10
2014,06,23,03,54,12.10
2014,06,23,03,55,12.10
2014,06,23,03,56,12.10
2014,06,23,03,57,12.10
2014,06,23,03,58,12.10
2014,06,23,03,59,12.10
2014,06,23,04,00,12.10
2014,06,23,04,01,12.10
2014,06,23,04,02,12.10
2014,06,23,04,03,12.10
2014,06,23,04,04,12.10
2014,06,23,04,05,12.10
2014,06,23,04,06,12.10
2014,06,23,04,07,12.10
2014,06,23,04,08,12.00
2014,06,23,04,09,12.00
2014,06,23,04,10,12.00
2014,06,23,04,11,12.00
2014,06,23,04,12,12.00
2014,06,23,04,13,12.00
2014,06,23,04,14,12.00
2014,06,23,04,15,12.00
2014,06,23,04,16,12.00
2014,06,23,04,17,12.00
2014,06,23,04,18,12.00
2014,06,23,04,19,11.90
2014,06,23,04,20,11.90
2014,06,23,04,21,11.90
2014,06,23,04,22,11.90
2014,06,23,04,23,11.90
2014,06,23,04,24,11.90
2014,06,23,04,25,11.90
2014,06,23,04,26,11.90
2014,06,23,04,27,11.90
2014,06,23,04,28,11.90
2014,06,23,04,29,11.90
2014,06,23,04,30,11.90
2014,06,23,04,31,11.80
2014,06,23,04,32,11.80
2014,06,23,04,33,11.80
2014,06,23,04,34,11.80
2014,06,23,04,35,11.80
2014,06,23,04,36,11.80
2014,06,23,04,37,11.90
2014,06,23,04,38,11.90
2014,06,23,04,39,11.90
2014,06,23,04,40,11.90
2014,06,23,04,41,11.90
2014,06,23,04,42,12.00
2014,06,23,04,43,12.00
2014,06,23,04,44,12.00
2014,06,23,04,45,12.00
2014,06,23,04,46,12.00
2014,06,23,04,47,12.00
2014,06,23,04,48,12.00
2014,06,23,04,49,12.00
2014,06,23,04,50,12.00
2014,06,23,04,51,12.10
2014,06,23,04,52,12.10
2014,06,23,04,53,12.10
2014,06,23,04,54,12.10
2014,06,23,04,55,12.10
2014,06,23,04,56,12.10
2014,06,23,04,57,12.10
2014,06,23,04,58,12.10
2014,06,23,04,59,12.10
2014,06,23,05,00,12.10
2014,06,23,05,01,12.10
2014,06,23,05,02,12.10
2014,06,23,05,03,12.10
2014,06,23,05,04,12.10
2014,06,23,05,05,12.10
2014,06,23,05,06,12.10
2014,06,23,05,07,12.10
2014,06,23,05,08,12.10
2014,06,23,05,09,12.10
2014,06,23,05,10,12.00
2014,06,23,05,11,12.00
2014,06,23,05,12,12.00
2014,06,23,05,13,12.00
2014,06,23,05,14,11.90
2014,06,23,05,15,11.90
2014,06,23,05,16,11.90
2014,06,23,05,17,11.90
2014,06,23,05,18,11.90
2014,06,23,05,19,11.90
2014,06,23,05,20,11.90
2014,06,23,05,21,11.90
2014,06,23,05,22,11.80
2014,06,23,05,23,11.80
2014,06,23,05,24,11.80
2014,06,23,05,25,11.80
2014,06,23,05,26,11.80
2014,06,23,05,27,11.80
2014,06,23,05,28,11.80
2014,06,23,05,29,11.70
2014,06,23,05,30,11.70
2014,06,23,05,31,11.70
2014,06,23,05,32,11.70
2014,06,23,05,33,11.70
2014,06,23,05,34,11.60
2014,06,23,05,35,11.60
2014,06,23,05,36,11.60
2014,06,23,05,37,11.60
2014,06,23,05,38,11.60
2014,06,23,05,39,11.60
2014,06,23,05,40,11.50
2014,06,23,05,41,11.50
2014,06,23,05,42,11.50
2014,06,23,05,43,11.50
2014,06,23,05,44,11.50
2014,06,23,05,45,11.40
2014,06,23,05,46,11.40
2014,06,23,05,47,11.40
2014,06,23,05,48,11.40
2014,06,23,05,49,11.40
2014,06,23,05,50,11.40
2014,06,23,05,51,11.40
2014,06,23,05,52,11.40
2014,06,23,05,53,11.40
2014,06,23,05,54,11.40
2014,06,23,05,55,11.40
2014,06,23,05,56,11.40
2014,06,23,05,57,11.50
2014,06,23,05,58,11.50
2014,06,23,05,59,11.50
2014,06,23,06,00,11.60
2014,06,23,06,01,11.60
2014,06,23,06,02,11.60
2014,06,23,06,03,11.60
2014,06,23,06,04,11.60
2014,06,23,06,05,11.60
2014,06,23,06,06,11.60
2014,06,23,06,07,11.60
2014,06,23,06,08,11.70
2014,06,23,06,09,11.70
2014,06,23,06,10,11.70
2014,06,23,06,11,11.70
2014,06,23,06,12,11.70
2014,06,23,06,13,11.80
2014,06,23,06,14,11.80
2014,06,23,06,15,11.80
2014,06,23,06,16,11.80
2014,06,23,06,17,11.90
2014,06,23,06,18,11.90
2014,06,23,06,19,11.90
2014,06,23,06,20,12.00
2014,06,23,06,21,12.00
2014,06,23,06,22,12.00
2014,06,23,06,23,12.10
2014,06,23,06,24,12.10
2014,06,23,06,25,12.10
2014,06,23,06,26,12.20
2014,06,23,06,27,12.20
2014,06,23,06,28,12.20
2014,06,23,06,29,12.20
2014,06,23,06,30,12.30
2014,06,23,06,31,12.30
2014,06,23,06,32,12.30
2014,06,23,06,33,12.40
2014,06,23,06,34,12.50
2014,06,23,06,35,12.60
2014,06,23,06,36,12.60
2014,06,23,06,37,12.70
2014,06,23,06,38,12.80
2014,06,23,06,39,12.80
2014,06,23,06,40,12.90
2014,06,23,06,41,13.00
2014,06,23,06,42,13.00
2014,06,23,06,43,13.10
2014,06,23,06,44,13.20
2014,06,23,06,45,13.20
2014,06,23,06,46,13.30
2014,06,23,06,47,13.30
2014,06,23,06,48,13.40
2014,06,23,06,49,13.50
2014,06,23,06,50,13.60
2014,06,23,06,51,13.60
2014,06,23,06,52,13.70
2014,06,23,06,53,13.80
2014,06,23,06,54,13.90
2014,06,23,06,55,14.00
2014,06,23,06,56,14.20
2014,06,23,06,57,14.30
2014,06,23,06,58,14.40
2014,06,23,06,59,14.50
2014,06,23,07,00,14.60
2014,06,23,07,01,14.70
2014,06,23,07,02,14.70
2014,06,23,07,03,14.80
2014,06,23,07,04,14.90
2014,06,23,07,05,15.00
2014,06,23,07,06,15.10
2014,06,23,07,07,15.20
2014,06,23,07,08,15.30
2014,06,23,07,09,15.40
2014,06,23,07,10,15.50
2014,06,23,07,11,15.60
2014,06,23,07,12,15.70
2014,06,23,07,13,15.80
2014,06,23,07,14,15.80
2014,06,23,07,15,15.90
2014,06,23,07,16,16.00
2014,06,23,07,17,16.10
2014,06,23,07,18,16.20
2014,06,23,07,19,16.30
2014,06,23,07,20,16.30
2014,06,23,07,21,16.40
2014,06,23,07,22,16.50
2014,06,23,07,23,16.50
2014,06,23,07,24,16.60
2014,06,23,07,25,16.60
2014,06,23,07,26,16.70
2014,06,23,07,27,16.70
2014,06,23,07,28,16.70
2014,06,23,07,29,16.70
2014,06,23,07,30,16.80
2014,06,23,07,31,16.80
2014,06,23,07,32,16.80
2014,06,23,07,33,16.80
2014,06,23,07,34,16.80
2014,06,23,07,35,16.80
2014,06,23,07,36,16.80
2014,06,23,07,37,16.90
2014,06,23,07,38,16.90
2014,06,23,07,39,16.90
2014,06,23,07,40,16.90
2014,06,23,07,41,16.90
2014,06,23,07,42,16.90
2014,06,23,07,43,16.90
2014,06,23,07,44,16.90
2014,06,23,07,45,16.90
2014,06,23,07,46,16.90
2014,06,23,07,47,16.90
2014,06,23,07,48,16.90
2014,06,23,07,49,16.90
2014,06,23,07,50,16.90
2014,06,23,07,51,16.90
2014,06,23,07,52,16.90
2014,06,23,07,53,16.90
2014,06,23,07,54,17.00
2014,06,23,07,55,17.00
2014,06,23,07,56,17.00
2014,06,23,07,57,16.90
2014,06,23,07,58,16.90
2014,06,23,07,59,16.90
2014,06,23,08,00,17.00
2014,06,23,08,01,16.90
2014,06,23,08,02,16.90
2014,06,23,08,03,16.90
2014,06,23,08,04,16.90
2014,06,23,08,05,16.90
2014,06,23,08,06,16.90
2014,06,23,08,07,16.90
2014,06,23,08,08,16.90
2014,06,23,08,09,16.90
2014,06,23,08,10,16.90
2014,06,23,08,11,16.90
2014,06,23,08,12,16.90
2014,06,23,08,13,16.90
2014,06,23,08,14,16.90
2014,06,23,08,15,16.90
2014,06,23,08,16,17.00
2014,06,23,08,17,17.00
2014,06,23,08,18,17.00
2014,06,23,08,19,17.00
2014,06,23,08,20,17.00
2014,06,23,08,21,17.00
2014,06,23,08,22,17.10
2014,06,23,08,23,17.10
2014,06,23,08,24,17.10
2014,06,23,08,25,17.20
2014,06,23,08,26,17.20
2014,06,23,08,27,17.20
2014,06,23,08,28,17.20
2014,06,23,08,29,17.20
2014,06,23,08,30,17.20
2014,06,23,08,31,17.20
2014,06,23,08,32,17.30
2014,06,23,08,33,17.30
2014,06,23,08,34,17.30
2014,06,23,08,35,17.30
2014,06,23,08,36,17.30
2014,06,23,08,37,17.30
2014,06,23,08,38,17.30
2014,06,23,08,39,17.30
2014,06,23,08,40,17.40
2014,06,23,08,41,17.40
2014,06,23,08,42,17.40
2014,06,23,08,43,17.40
2014,06,23,08,44,17.40
2014,06,23,08,45,17.40
2014,06,23,08,46,17.40
2014,06,23,08,47,17.40
2014,06,23,08,48,17.40
2014,06,23,08,49,17.40
2014,06,23,08,50,17.40
2014,06,23,08,51,17.40
2014,06,23,08,52,17.40
2014,06,23,08,53,17.40
2014,06,23,08,54,17.30
2014,06,23,08,55,17.30
2014,06,23,08,56,17.30
2014,06,23,08,57,17.30
2014,06,23,08,58,17.30
2014,06,23,08,59,17.30
2014,06,23,09,00,17.30
2014,06,23,09,01,17.30
2014,06,23,09,02,17.30
2014,06,23,09,03,17.30
2014,06,23,09,04,17.30
2014,06,23,09,05,17.30
2014,06,23,09,06,17.30
2014,06,23,09,07,17.30
2014,06,23,09,08,17.40
2014,06,23,09,09,17.40
2014,06,23,09,10,17.40
2014,06,23,09,11,17.40
2014,06,23,09,12,17.40
2014,06,23,09,13,17.50
2014,06,23,09,14,17.50
2014,06,23,09,15,17.50
2014,06,23,09,16,17.60
2014,06,23,09,17,17.60
2014,06,23,09,18,17.60
2014,06,23,09,19,17.60
2014,06,23,09,20,17.70
2014,06,23,09,21,17.70
2014,06,23,09,22,17.70
2014,06,23,09,23,17.80
2014,06,23,09,24,17.80
2014,06,23,09,25,17.90
2014,06,23,09,26,17.90
2014,06,23,09,27,18.00
2014,06,23,09,28,18.10
2014,06,23,09,29,18.10
2014,06,23,09,30,18.20
2014,06,23,09,31,18.20
2014,06,23,09,32,18.30
2014,06,23,09,33,18.30
2014,06,23,09,34,18.30
2014,06,23,09,35,18.30
2014,06,23,09,36,18.30
2014,06,23,09,37,18.30
2014,06,23,09,38,18.40
2014,06,23,09,39,18.40
2014,06,23,09,40,18.40
2014,06,23,09,41,18.40
2014,06,23,09,42,18.50
2014,06,23,09,43,18.50
2014,06,23,09,44,18.50
2014,06,23,09,45,18.60
2014,06,23,09,46,18.60
2014,06,23,09,47,18.70
2014,06,23,09,48,18.70
2014,06,23,09,49,18.70
2014,06,23,09,50,18.80
2014,06,23,09,51,18.80
2014,06,23,09,52,18.90
2014,06,23,09,53,18.90
2014,06,23,09,54,18.90
2014,06,23,09,55,19.00
2014,06,23,09,56,19.00
2014,06,23,09,57,19.00
2014,06,23,09,58,19.00
2014,06,23,09,59,19.00
2014,06,23,10,00,19.00
2014,06,23,10,01,18.90
2014,06,23,10,02,18.90
2014,06,23,10,03,18.90
2014,06,23,10,04,18.90
2014,06,23,10,05,18.90
2014,06,23,10,06,18.90
2014,06,23,10,07,18.90
2014,06,23,10,08,19.00
2014,06,23,10,09,19.00
2014,06,23,10,10,19.00
2014,06,23,10,11,19.10
2014,06,23,10,12,19.20
2014,06,23,10,13,19.20
2014,06,23,10,14,19.30
2014,06,23,10,15,19.30
2014,06,23,10,16,19.40
2014,06,23,10,17,19.40
2014,06,23,10,18,19.50
2014,06,23,10,19,19.50
2014,06,23,10,20,19.50
2014,06,23,10,21,19.60
2014,06,23,10,22,19.60
2014,06,23,10,23,19.60
2014,06,23,10,24,19.60
2014,06,23,10,25,19.60
2014,06,23,10,26,19.60
2014,06,23,10,27,19.50
2014,06,23,10,28,19.50
2014,06,23,10,29,19.40
2014,06,23,10,30,19.40
2014,06,23,10,31,19.30
2014,06,23,10,32,19.20
2014,06,23,10,33,19.10
2014,06,23,10,34,19.10
2014,06,23,10,35,19.10
2014,06,23,10,36,19.00
2014,06,23,10,37,19.00
2014,06,23,10,38,19.00
2014,06,23,10,39,19.00
2014,06,23,10,40,19.00
2014,06,23,10,41,19.00
2014,06,23,10,42,19.00
2014,06,23,10,43,19.00
2014,06,23,10,44,19.00
2014,06,23,10,45,19.10
2014,06,23,10,46,19.00
2014,06,23,10,47,19.00
2014,06,23,10,48,18.90
2014,06,23,10,49,18.90
2014,06,23,10,50,18.80
2014,06,23,10,51,18.80
2014,06,23,10,52,18.80
2014,06,23,10,53,18.80
2014,06,23,10,54,18.70
2014,06,23,10,55,18.70
2014,06,23,10,56,18.80
2014,06,23,10,57,18.80
2014,06,23,10,58,18.80
2014,06,23,10,59,18.80
2014,06,23,11,00,18.90
2014,06,23,11,01,18.90
2014,06,23,11,02,18.90
2014,06,23,11,03,18.90
2014,06,23,11,04,18.90
2014,06,23,11,05,18.90
2014,06,23,11,06,18.90
2014,06,23,11,07,18.90
2014,06,23,11,08,18.90
2014,06,23,11,09,18.90
2014,06,23,11,10,18.90
2014,06,23,11,11,19.00
2014,06,23,11,12,19.00
2014,06,23,11,13,18.90
2014,06,23,11,14,18.90
2014,06,23,11,15,18.90
2014,06,23,11,16,18.90
2014,06,23,11,17,18.90
2014,06,23,11,18,18.90
2014,06,23,11,19,18.90
2014,06,23,11,20,19.00
2014,06,23,11,21,19.10
2014,06,23,11,22,19.20
2014,06,23,11,23,19.30
2014,06,23,11,24,19.30
2014,06,23,11,25,19.40
2014,06,23,11,26,19.50
2014,06,23,11,27,19.60
2014,06,23,11,28,19.60
2014,06,23,11,29,19.70
2014,06,23,11,30,19.70
2014,06,23,11,31,19.70
2014,06,23,11,32,19.70
2014,06,23,11,33,19.80
2014,06,23,11,34,19.80
2014,06,23,11,35,19.90
2014,06,23,11,36,20.00
2014,06,23,11,37,20.10
2014,06,23,11,38,20.30
2014,06,23,11,39,20.40
2014,06,23,11,40,20.40
2014,06,23,11,41,20.50
2014,06,23,11,42,20.60
2014,06,23,11,43,20.70
2014,06,23,11,44,20.70
2014,06,23,11,45,20.70
2014,06,23,11,46,20.80
2014,06,23,11,47,20.80
2014,06,23,11,48,20.90
2014,06,23,11,49,20.90
2014,06,23,11,50,21.00
2014,06,23,11,51,21.10
2014,06,23,11,52,21.20
2014,06,23,11,53,21.20
2014,06,23,11,54,21.20
2014,06,23,11,55,21.20
2014,06,23,11,56,21.20
2014,06,23,11,57,21.20
2014,06,23,11,58,21.30
2014,06,23,11,59,21.30
2014,06,23,12,00,21.30
2014,06,23,12,01,21.30
2014,06,23,12,02,21.30
2014,06,23,12,03,21.30
2014,06,23,12,04,21.20
2014,06,23,12,05,21.20
2014,06,23,12,06,21.20
2014,06,23,12,07,21.10
2014,06,23,12,08,21.00
2014,06,23,12,09,20.90
2014,06,23,12,10,20.80
2014,06,23,12,11,20.70
2014,06,23,12,12,20.60
2014,06,23,12,13,20.50
2014,06,23,12,14,20.40
2014,06,23,12,15,20.40
2014,06,23,12,16,20.30
2014,06,23,12,17,20.20
2014,06,23,12,18,20.20
2014,06,23,12,19,20.20
2014,06,23,12,20,20.20
2014,06,23,12,21,20.30
2014,06,23,12,22,20.30
2014,06,23,12,23,20.30
2014,06,23,12,24,20.40
2014,06,23,12,25,20.40
2014,06,23,12,26,20.30
2014,06,23,12,27,20.30
2014,06,23,12,28,20.30
2014,06,23,12,29,20.30
2014,06,23,12,30,20.30
2014,06,23,12,31,20.30
2014,06,23,12,32,20.30
2014,06,23,12,33,20.30
2014,06,23,12,34,20.30
2014,06,23,12,35,20.30
2014,06,23,12,36,20.40
2014,06,23,12,37,20.40
2014,06,23,12,38,20.40
2014,06,23,12,39,20.40
2014,06,23,12,40,20.50
2014,06,23,12,41,20.50
2014,06,23,12,42,20.60
2014,06,23,12,43,20.50
2014,06,23,12,44,20.50
2014,06,23,12,45,20.60
2014,06,23,12,46,20.60
2014,06,23,12,47,20.50
2014,06,23,12,48,20.50
2014,06,23,12,49,20.40
2014,06,23,12,50,20.40
2014,06,23,12,51,20.40
2014,06,23,12,52,20.30
2014,06,23,12,53,20.40
2014,06,23,12,54,20.40
2014,06,23,12,55,20.50
2014,06,23,12,56,20.60
2014,06,23,12,57,20.50
2014,06,23,12,58,20.50
2014,06,23,12,59,20.40
2014,06,23,13,00,20.30
2014,06,23,13,01,20.30
2014,06,23,13,02,20.40
2014,06,23,13,03,20.50
2014,06,23,13,04,20.50
2014,06,23,13,05,20.60
2014,06,23,13,06,20.70
2014,06,23,13,07,20.70
2014,06,23,13,08,20.80
2014,06,23,13,09,20.80
2014,06,23,13,10,20.80
2014,06,23,13,11,20.80
2014,06,23,13,12,20.80
2014,06,23,13,13,20.80
2014,06,23,13,14,20.80
2014,06,23,13,15,20.80
2014,06,23,13,16,20.80
2014,06,23,13,17,20.80
2014,06,23,13,18,20.80
2014,06,23,13,19,20.80
2014,06,23,13,20,20.70
2014,06,23,13,21,20.70
2014,06,23,13,22,20.70
2014,06,23,13,23,20.60
2014,06,23,13,24,20.60
2014,06,23,13,25,20.50
2014,06,23,13,26,20.50
2014,06,23,13,27,20.50
2014,06,23,13,28,20.50
2014,06,23,13,29,20.60
2014,06,23,13,30,20.70
2014,06,23,13,31,20.70
2014,06,23,13,32,20.70
2014,06,23,13,33,20.80
2014,06,23,13,34,20.90
2014,06,23,13,35,20.90
2014,06,23,13,36,21.00
2014,06,23,13,37,21.10
2014,06,23,13,38,21.10
2014,06,23,13,39,21.20
2014,06,23,13,40,21.20
2014,06,23,13,41,21.10
2014,06,23,13,42,21.10
2014,06,23,13,43,21.10
2014,06,23,13,44,21.00
2014,06,23,13,45,21.00
2014,06,23,13,46,20.90
2014,06,23,13,47,20.90
2014,06,23,13,48,20.90
2014,06,23,13,49,20.90
2014,06,23,13,50,20.90
2014,06,23,13,51,20.90
2014,06,23,13,52,21.00
2014,06,23,13,53,21.00
2014,06,23,13,54,21.10
2014,06,23,13,55,21.10
2014,06,23,13,56,21.10
2014,06,23,13,57,21.20
2014,06,23,13,58,21.20
2014,06,23,13,59,21.20
2014,06,23,14,00,21.20
2014,06,23,14,01,21.30
2014,06,23,14,02,21.30
2014,06,23,14,03,21.30
2014,06,23,14,04,21.30
2014,06,23,14,05,21.30
2014,06,23,14,06,21.30
2014,06,23,14,07,21.30
2014,06,23,14,08,21.20
2014,06,23,14,09,21.10
2014,06,23,14,10,20.90
2014,06,23,14,11,20.80
2014,06,23,14,12,20.70
2014,06,23,14,13,20.70
2014,06,23,14,14,20.60
2014,06,23,14,15,20.60
2014,06,23,14,16,20.60
2014,06,23,14,17,20.60
2014,06,23,14,18,20.60
2014,06,23,14,19,20.60
2014,06,23,14,20,20.60
2014,06,23,14,21,20.60
2014,06,23,14,22,20.50
2014,06,23,14,23,20.50
2014,06,23,14,24,20.40
2014,06,23,14,25,20.40
2014,06,23,14,26,20.40
2014,06,23,14,27,20.40
2014,06,23,14,28,20.40
2014,06,23,14,29,20.40
2014,06,23,14,30,20.50
2014,06,23,14,31,20.50
2014,06,23,14,32,20.60
2014,06,23,14,33,20.70
2014,06,23,14,34,20.70
2014,06,23,14,35,20.70
2014,06,23,14,36,20.80
2014,06,23,14,37,20.80
2014,06,23,14,38,20.90
2014,06,23,14,39,20.90
2014,06,23,14,40,20.90
2014,06,23,14,41,20.90
2014,06,23,14,42,20.90
2014,06,23,14,43,21.00
2014,06,23,14,44,21.00
2014,06,23,14,45,21.00
2014,06,23,14,46,21.00
2014,06,23,14,47,21.10
2014,06,23,14,48,21.10
2014,06,23,14,49,21.10
2014,06,23,14,50,21.00
2014,06,23,14,51,20.90
2014,06,23,14,52,20.90
2014,06,23,14,53,20.90
2014,06,23,14,54,20.80
2014,06,23,14,55,20.80
2014,06,23,14,56,20.80
2014,06,23,14,57,20.80
2014,06,23,14,58,20.80
2014,06,23,14,59,20.80
2014,06,23,15,00,20.80
2014,06,23,15,01,20.80
2014,06,23,15,02,20.80
2014,06,23,15,03,20.80
2014,06,23,15,04,20.80
2014,06,23,15,05,20.70
2014,06,23,15,06,20.70
2014,06,23,15,07,20.60
2014,06,23,15,08,20.60
2014,06,23,15,09,20.70
2014,06,23,15,10,20.70
2014,06,23,15,11,20.70
2014,06,23,15,12,20.80
2014,06,23,15,13,20.80
2014,06,23,15,14,20.80
2014,06,23,15,15,20.80
2014,06,23,15,16,20.80
2014,06,23,15,17,20.80
2014,06,23,15,18,20.80
2014,06,23,15,19,20.90
2014,06,23,15,20,20.90
2014,06,23,15,21,20.80
2014,06,23,15,22,20.80
2014,06,23,15,23,20.70
2014,06,23,15,24,20.70
2014,06,23,15,25,20.60
2014,06,23,15,26,20.60
2014,06,23,15,27,20.60
2014,06,23,15,28,20.60
2014,06,23,15,29,20.60
2014,06,23,15,30,20.50
2014,06,23,15,31,20.50
2014,06,23,15,32,20.40
2014,06,23,15,33,20.40
2014,06,23,15,34,20.30
2014,06,23,15,35,20.30
2014,06,23,15,36,20.30
2014,06,23,15,37,20.30
2014,06,23,15,38,20.20
2014,06,23,15,39,20.20
2014,06,23,15,40,20.10
2014,06,23,15,41,20.10
2014,06,23,15,42,20.10
2014,06,23,15,43,20.00
2014,06,23,15,44,20.00
2014,06,23,15,45,20.00
2014,06,23,15,46,19.90
2014,06,23,15,47,19.90
2014,06,23,15,48,19.90
2014,06,23,15,49,19.90
2014,06,23,15,50,19.80
2014,06,23,15,51,19.80
2014,06,23,15,52,19.80
2014,06,23,15,53,19.80
2014,06,23,15,54,19.80
2014,06,23,15,55,19.80
2014,06,23,15,56,19.80
2014,06,23,15,57,19.80
2014,06,23,15,58,19.80
2014,06,23,15,59,19.80
2014,06,23,16,00,19.80
2014,06,23,16,01,19.80
2014,06,23,16,02,19.80
2014,06,23,16,03,19.80
2014,06,23,16,04,19.70
2014,06,23,16,05,19.70
2014,06,23,16,06,19.70
2014,06,23,16,07,19.70
2014,06,23,16,08,19.70
2014,06,23,16,09,19.70
2014,06,23,16,10,19.70
2014,06,23,16,11,19.60
2014,06,23,16,12,19.60
2014,06,23,16,13,19.60
2014,06,23,16,14,19.60
2014,06,23,16,15,19.60
2014,06,23,16,16,19.60
2014,06,23,16,17,19.50
2014,06,23,16,18,19.50
2014,06,23,16,19,19.50
2014,06,23,16,20,19.50
2014,06,23,16,21,19.40
2014,06,23,16,22,19.40
2014,06,23,16,23,19.40
2014,06,23,16,24,19.40
2014,06,23,16,25,19.50
2014,06,23,16,26,19.50
2014,06,23,16,27,19.50
2014,06,23,16,28,19.60
2014,06,23,16,29,19.60
2014,06,23,16,30,19.60
2014,06,23,16,31,19.70
2014,06,23,16,32,19.70
2014,06,23,16,33,19.70
2014,06,23,16,34,19.70
2014,06,23,16,35,19.80
2014,06,23,16,36,19.80
2014,06,23,16,37,19.80
2014,06,23,16,38,19.80
2014,06,23,16,39,19.90
2014,06,23,16,40,19.90
2014,06,23,16,41,19.90
2014,06,23,16,42,19.90
2014,06,23,16,43,19.90
2014,06,23,16,44,19.90
2014,06,23,16,45,19.90
2014,06,23,16,46,19.90
2014,06,23,16,47,19.90
2014,06,23,16,48,19.90
2014,06,23,16,49,19.90
2014,06,23,16,50,19.90
2014,06,23,16,51,19.90
2014,06,23,16,52,19.90
2014,06,23,16,53,19.90
2014,06,23,16,54,19.90
2014,06,23,16,55,19.80
2014,06,23,16,56,19.80
2014,06,23,16,57,19.80
2014,06,23,16,58,19.80
2014,06,23,16,59,19.70
2014,06,23,17,00,19.70
2014,06,23,17,01,19.70
2014,06,23,17,02,19.60
2014,06,23,17,03,19.60
2014,06,23,17,04,19.60
2014,06,23,17,05,19.60
2014,06,23,17,06,19.60
2014,06,23,17,07,19.50
2014,06,23,17,08,19.50
2014,06,23,17,09,19.50
2014,06,23,17,10,19.50
2014,06,23,17,11,19.50
2014,06,23,17,12,19.50
2014,06,23,17,13,19.50
2014,06,23,17,14,19.50
2014,06,23,17,15,19.50
2014,06,23,17,16,19.50
2014,06,23,17,17,19.50
2014,06,23,17,18,19.50
2014,06,23,17,19,19.50